| time (UTC) | temp C | wind direction | speed KPH | gust KPH | rain 1hr cm | rain 24hr cm | rain mn cm | humidity % | barometer mb |
| 20260504081754 | 8 | 253 | 6.4 | 12.9 | 0.00 | 0.00 | 0.00 | 47 | 1011.0 |
| 20260504081250 | 8 | 6 | 3.2 | 4.8 | 0.00 | 0.00 | 0.00 | 47 | 1010.9 |
| 20260504080747 | 7 | 33 | 4.8 | 6.4 | 0.00 | 0.00 | 0.00 | 48 | 1011.1 |
| 20260504080243 | 7 | 213 | 6.4 | 9.7 | 0.00 | 0.00 | 0.00 | 46 | 1010.9 |
| 20260504070211 | 7 | 324 | 3.2 | 3.2 | 0.00 | 0.00 | 0.00 | 44 | 1011.0 |
| 20260504060131 | 7 | 58 | 3.2 | 3.2 | 0.00 | 0.00 | 0.00 | 41 | 1011.6 |
| 20260504050600 | 8 | 289 | 3.2 | 4.8 | 0.00 | 0.00 | 0.00 | 40 | 1012.1 |
| 20260504045553 | 7 | 331 | 1.6 | 3.2 | 0.00 | 0.00 | 0.00 | 41 | 1011.7 |
| 20260504045048 | 8 | 299 | 1.6 | 1.6 | 0.00 | 0.00 | 0.00 | 40 | 1011.8 |
| 20260504044546 | 8 | 334 | 1.6 | 1.6 | 0.00 | 0.00 | 0.00 | 40 | 1011.7 |
| 20260504044043 | 8 | 319 | 3.2 | 4.8 | 0.00 | 0.00 | 0.00 | 40 | 1011.7 |
| 20260504043540 | 8 | 316 | 3.2 | 4.8 | 0.00 | 0.00 | 0.00 | 40 | 1011.5 |
| 20260504043037 | 8 | 329 | 3.2 | 3.2 | 0.00 | 0.00 | 0.00 | 40 | 1011.6 |
| 20260504042534 | 7 | 234 | 6.4 | 6.4 | 0.00 | 0.00 | 0.00 | 41 | 1011.6 |
| 20260504042031 | 7 | 271 | 3.2 | 3.2 | 0.00 | 0.00 | 0.00 | 44 | 1011.5 |
| 20260504041527 | 7 | 212 | 3.2 | 4.8 | 0.00 | 0.00 | 0.00 | 44 | 1011.4 |
| 20260504041023 | 7 | 261 | 3.2 | 4.8 | 0.00 | 0.00 | 0.00 | 45 | 1011.4 |
| 20260504040521 | 7 | 296 | 3.2 | 4.8 | 0.00 | 0.00 | 0.00 | 43 | 1011.4 |
| 20260504040018 | 7 | 269 | 3.2 | 4.8 | 0.00 | 0.00 | 0.00 | 47 | 1011.2 |
| 20260504035515 | 7 | 293 | 6.4 | 6.4 | 0.00 | 0.00 | 0.00 | 43 | 1011.5 |
| 20260504035011 | 7 | 295 | 4.8 | 4.8 | 0.00 | 0.00 | 0.00 | 44 | 1011.8 |
| 20260504034509 | 7 | 318 | 3.2 | 4.8 | 0.00 | 0.00 | 0.00 | 45 | 1011.5 |
| 20260504034006 | 7 | 241 | 4.8 | 6.4 | 0.00 | 0.00 | 0.00 | 44 | 1011.5 |
| 20260504033503 | 7 | 284 | 4.8 | 4.8 | 0.00 | 0.00 | 0.00 | 45 | 1011.4 |
| 20260504033000 | 7 | 274 | 4.8 | 9.7 | 0.00 | 0.00 | 0.00 | 43 | 1011.4 |
| 20260504032457 | 7 | 323 | 3.2 | 4.8 | 0.00 | 0.00 | 0.00 | 45 | 1011.4 |
| 20260504031954 | 7 | 254 | 3.2 | 3.2 | 0.00 | 0.00 | 0.00 | 44 | 1011.5 |
| 20260504031450 | 8 | 284 | 6.4 | 9.7 | 0.00 | 0.00 | 0.00 | 43 | 1011.2 |
| 20260504030947 | 7 | 13 | 1.6 | 1.6 | 0.00 | 0.00 | 0.00 | 46 | 1011.5 |
| 20260504030445 | 8 | 252 | 1.6 | 3.2 | 0.00 | 0.00 | 0.00 | 44 | 1011.5 |
| 20260504025940 | 8 | 269 | 4.8 | 6.4 | 0.00 | 0.00 | 0.00 | 42 | 1011.5 |
| 20260504025437 | 8 | 258 | 3.2 | 4.8 | 0.00 | 0.00 | 0.00 | 43 | 1011.4 |
| 20260504024934 | 8 | 184 | 4.8 | 6.4 | 0.00 | 0.00 | 0.00 | 42 | 1011.4 |
| 20260504024431 | 8 | 277 | 1.6 | 3.2 | 0.00 | 0.00 | 0.00 | 42 | 1011.5 |
| 20260504023928 | 8 | 15 | 1.6 | 1.6 | 0.00 | 0.00 | 0.00 | 43 | 1011.5 |
| 20260504023425 | 8 | 267 | 1.6 | 1.6 | 0.00 | 0.00 | 0.00 | 44 | 1011.5 |
| 20260504022920 | 8 | 242 | 4.8 | 4.8 | 0.00 | 0.00 | 0.00 | 41 | 1011.4 |
| 20260504022417 | 8 | 108 | 3.2 | 4.8 | 0.00 | 0.00 | 0.00 | 41 | 1011.5 |
| 20260504021914 | 8 | 23 | 0.0 | 1.6 | 0.00 | 0.00 | 0.00 | 42 | 1011.4 |
| 20260504021411 | 8 | 146 | 4.8 | 9.7 | 0.00 | 0.00 | 0.00 | 41 | 1011.2 |
| 20260504020908 | 7 | 245 | 1.6 | 1.6 | 0.00 | 0.00 | 0.00 | 42 | 1011.4 |
| 20260504020405 | 8 | 73 | 1.6 | 3.2 | 0.00 | 0.00 | 0.00 | 41 | 1011.4 |
| 20260504015901 | 7 | 340 | 1.6 | 1.6 | 0.00 | 0.00 | 0.00 | 42 | 1011.1 |
| 20260504015357 | 7 | 286 | 3.2 | 3.2 | 0.00 | 0.00 | 0.00 | 41 | 1011.2 |
| 20260504014853 | 7 | 33 | 1.6 | 1.6 | 0.00 | 0.00 | 0.00 | 41 | 1011.1 |
| 20260504014349 | 7 | 100 | 1.6 | 1.6 | 0.00 | 0.00 | 0.00 | 41 | 1011.1 |
| 20260504013847 | 7 | 91 | 3.2 | 4.8 | 0.00 | 0.00 | 0.00 | 41 | 1011.1 |
| 20260504013345 | 7 | 148 | 1.6 | 3.2 | 0.00 | 0.00 | 0.00 | 41 | 1011.1 |
| 20260504012841 | 7 | 62 | 0.0 | 1.6 | 0.00 | 0.00 | 0.00 | 39 | 1011.0 |
| 20260504012339 | 7 | 103 | 3.2 | 4.8 | 0.00 | 0.00 | 0.00 | 40 | 1011.1 |
| 20260504011836 | 7 | 129 | 0.0 | 1.6 | 0.00 | 0.00 | 0.00 | 39 | 1011.0 |
| 20260504011332 | 7 | 10 | 0.0 | 1.6 | 0.00 | 0.00 | 0.00 | 39 | 1010.9 |
| 20260504010829 | 8 | 120 | 0.0 | 3.2 | 0.00 | 0.00 | 0.00 | 39 | 1011.0 |
| 20260504010324 | 8 | 118 | 3.2 | 4.8 | 0.00 | 0.00 | 0.00 | 38 | 1010.9 |
| 20260504005821 | 7 | 129 | 1.6 | 3.2 | 0.00 | 0.00 | 0.00 | 39 | 1011.1 |
| 20260504005318 | 7 | 129 | 0.0 | 0.0 | 0.00 | 0.00 | 0.00 | 39 | 1011.0 |
| 20260504004816 | 7 | 142 | 1.6 | 3.2 | 0.00 | 0.00 | 0.00 | 39 | 1010.8 |
| 20260504004313 | 8 | 135 | 0.0 | 0.0 | 0.00 | 0.00 | 0.00 | 39 | 1010.8 |
| 20260504003809 | 8 | 128 | 0.0 | 0.0 | 0.00 | 0.00 | 0.00 | 39 | 1011.0 |
| 20260504003307 | 8 | 97 | 0.0 | 0.0 | 0.00 | 0.00 | 0.00 | 38 | 1011.0 |
| 20260504002803 | 8 | 99 | 1.6 | 1.6 | 0.00 | 0.00 | 0.00 | 37 | 1010.9 |
| 20260504002300 | 8 | 72 | 0.0 | 1.6 | 0.00 | 0.00 | 0.00 | 38 | 1010.8 |
| 20260504001758 | 8 | 56 | 0.0 | 0.0 | 0.00 | 0.00 | 0.00 | 37 | 1010.9 |
| 20260504001254 | 8 | 62 | 0.0 | 0.0 | 0.00 | 0.00 | 0.00 | 38 | 1010.9 |
| 20260504000751 | 8 | 270 | 0.0 | 0.0 | 0.00 | 0.00 | 0.00 | 37 | 1010.9 |
| 20260504000248 | 8 | 100 | 1.6 | 1.6 | 0.00 | 0.00 | 0.00 | 37 | 1010.7 |
| 20260503235746 | 9 | 335 | 0.0 | 1.6 | 0.00 | 0.00 | 0.00 | 36 | 1011.0 |
| 20260503235243 | 10 | 4 | 0.0 | 0.0 | 0.00 | 0.00 | 0.00 | 36 | 1010.9 |
| 20260503234741 | 10 | 231 | 1.6 | 3.2 | 0.00 | 0.00 | 0.00 | 35 | 1010.8 |
| 20260503234239 | 10 | 311 | 0.0 | 0.0 | 0.00 | 0.00 | 0.00 | 36 | 1010.9 |
| 20260503233736 | 10 | 264 | 1.6 | 1.6 | 0.00 | 0.00 | 0.00 | 37 | 1010.7 |
| 20260503233231 | 10 | 1 | 0.0 | 1.6 | 0.00 | 0.00 | 0.00 | 35 | 1010.6 |
| 20260503232728 | 10 | 247 | 4.8 | 4.8 | 0.00 | 0.00 | 0.00 | 33 | 1010.9 |
| 20260503232226 | 10 | 203 | 3.2 | 3.2 | 0.00 | 0.00 | 0.00 | 34 | 1010.7 |
| 20260503231724 | 11 | 269 | 1.6 | 3.2 | 0.00 | 0.00 | 0.00 | 36 | 1010.7 |
| 20260503231220 | 11 | 276 | 3.2 | 3.2 | 0.00 | 0.00 | 0.00 | 35 | 1010.9 |
| 20260503230716 | 11 | 341 | 6.4 | 6.4 | 0.00 | 0.00 | 0.00 | 33 | 1010.8 |
| 20260503230214 | 10 | 193 | 1.6 | 1.6 | 0.00 | 0.00 | 0.00 | 34 | 1010.6 |
| 20260503225712 | 10 | 169 | 9.7 | 12.9 | 0.00 | 0.00 | 0.00 | 33 | 1010.4 |
| 20260503225211 | 11 | 257 | 3.2 | 4.8 | 0.00 | 0.00 | 0.00 | 35 | 1010.6 |
| 20260503224709 | 11 | 274 | 3.2 | 4.8 | 0.00 | 0.00 | 0.00 | 33 | 1010.6 |
| 20260503224207 | 10 | 279 | 4.8 | 6.4 | 0.00 | 0.00 | 0.00 | 33 | 1010.6 |
| 20260503223704 | 10 | 282 | 8.0 | 9.7 | 0.00 | 0.00 | 0.00 | 33 | 1010.6 |
| 20260503223201 | 11 | 267 | 4.8 | 6.4 | 0.00 | 0.00 | 0.00 | 34 | 1010.5 |
| 20260503222658 | 11 | 324 | 6.4 | 6.4 | 0.00 | 0.00 | 0.00 | 35 | 1010.3 |
| 20260503222155 | 11 | 292 | 6.4 | 6.4 | 0.00 | 0.00 | 0.00 | 33 | 1010.5 |
| 20260503221654 | 10 | 294 | 8.0 | 11.3 | 0.00 | 0.00 | 0.00 | 33 | 1010.3 |
| 20260503221151 | 11 | 316 | 6.4 | 11.3 | 0.00 | 0.00 | 0.00 | 32 | 1010.0 |
| 20260503220647 | 11 | 277 | 6.4 | 6.4 | 0.00 | 0.00 | 0.00 | 32 | 1010.4 |
| 20260503220144 | 11 | 294 | 4.8 | 4.8 | 0.00 | 0.00 | 0.00 | 34 | 1010.6 |
| 20260503215641 | 11 | 264 | 6.4 | 11.3 | 0.00 | 0.00 | 0.00 | 33 | 1010.5 |
| 20260503215137 | 11 | 265 | 6.4 | 12.9 | 0.00 | 0.00 | 0.00 | 33 | 1010.4 |
| 20260503214631 | 11 | 242 | 3.2 | 4.8 | 0.00 | 0.00 | 0.00 | 32 | 1010.4 |
| 20260503214126 | 11 | 259 | 3.2 | 4.8 | 0.00 | 0.00 | 0.00 | 33 | 1010.6 |
| 20260503213620 | 11 | 320 | 6.4 | 6.4 | 0.00 | 0.00 | 0.00 | 33 | 1010.4 |
| 20260503213116 | 11 | 280 | 9.7 | 12.9 | 0.00 | 0.00 | 0.00 | 34 | 1010.4 |
| 20260503212614 | 11 | 250 | 11.3 | 14.5 | 0.00 | 0.00 | 0.00 | 33 | 1010.1 |
| 20260503212111 | 11 | 241 | 6.4 | 12.9 | 0.00 | 0.00 | 0.00 | 32 | 1010.3 |
| 20260503211609 | 11 | 276 | 8.0 | 12.9 | 0.00 | 0.00 | 0.00 | 33 | 1010.0 |
| 20260503211104 | 11 | 250 | 3.2 | 6.4 | 0.00 | 0.00 | 0.00 | 34 | 1010.4 |
| 20260503210600 | 11 | 306 | 6.4 | 9.7 | 0.00 | 0.00 | 0.00 | 35 | 1010.4 |
| 20260503210055 | 11 | 296 | 3.2 | 3.2 | 0.00 | 0.00 | 0.00 | 35 | 1010.3 |
| 20260503205553 | 11 | 285 | 9.7 | 11.3 | 0.00 | 0.00 | 0.00 | 34 | 1010.4 |
| 20260503205049 | 11 | 243 | 11.3 | 12.9 | 0.00 | 0.00 | 0.00 | 35 | 1010.4 |
| 20260503204547 | 10 | 263 | 4.8 | 6.4 | 0.00 | 0.00 | 0.00 | 34 | 1010.3 |
| 20260503204044 | 11 | 259 | 8.0 | 9.7 | 0.00 | 0.00 | 0.00 | 35 | 1010.4 |
| 20260503203541 | 11 | 311 | 6.4 | 9.7 | 0.00 | 0.00 | 0.00 | 34 | 1010.7 |
| 20260503203038 | 10 | 254 | 8.0 | 11.3 | 0.00 | 0.00 | 0.00 | 34 | 1010.5 |
| 20260503202536 | 10 | 276 | 8.0 | 9.7 | 0.00 | 0.00 | 0.00 | 37 | 1010.3 |
| 20260503202033 | 10 | 289 | 11.3 | 16.1 | 0.00 | 0.00 | 0.00 | 35 | 1010.6 |
| 20260503201531 | 10 | 262 | 6.4 | 9.7 | 0.00 | 0.00 | 0.00 | 35 | 1010.7 |
| 20260503201028 | 10 | 23 | 8.0 | 11.3 | 0.00 | 0.00 | 0.00 | 37 | 1010.5 |
| 20260503200524 | 10 | 207 | 8.0 | 12.9 | 0.00 | 0.00 | 0.00 | 37 | 1010.5 |
| 20260503200021 | 10 | 342 | 1.6 | 3.2 | 0.00 | 0.00 | 0.00 | 38 | 1010.9 |
| 20260503195518 | 10 | 246 | 11.3 | 14.5 | 0.00 | 0.00 | 0.00 | 39 | 1010.8 |
| 20260503195015 | 10 | 260 | 11.3 | 12.9 | 0.00 | 0.00 | 0.00 | 36 | 1010.8 |
| 20260503194513 | 10 | 248 | 3.2 | 4.8 | 0.00 | 0.00 | 0.00 | 39 | 1010.7 |
| 20260503194012 | 10 | 324 | 9.7 | 14.5 | 0.00 | 0.00 | 0.00 | 37 | 1010.7 |
| 20260503193509 | 10 | 218 | 8.0 | 11.3 | 0.00 | 0.00 | 0.00 | 38 | 1010.9 |
| 20260503193004 | 10 | 318 | 8.0 | 14.5 | 0.00 | 0.00 | 0.00 | 38 | 1011.0 |
| 20260503192500 | 10 | 242 | 8.0 | 12.9 | 0.00 | 0.00 | 0.00 | 38 | 1010.9 |
| 20260503191956 | 10 | 250 | 9.7 | 11.3 | 0.00 | 0.00 | 0.00 | 38 | 1011.0 |
| 20260503191454 | 9 | 255 | 6.4 | 11.3 | 0.00 | 0.00 | 0.00 | 41 | 1011.0 |
| 20260503190950 | 9 | 290 | 3.2 | 9.7 | 0.00 | 0.00 | 0.00 | 42 | 1011.0 |
| 20260503190448 | 9 | 277 | 6.4 | 11.3 | 0.00 | 0.00 | 0.00 | 44 | 1011.1 |
| 20260503185945 | 8 | 289 | 4.8 | 6.4 | 0.00 | 0.00 | 0.00 | 43 | 1011.4 |
| 20260503185441 | 9 | 291 | 8.0 | 11.3 | 0.00 | 0.00 | 0.00 | 42 | 1011.5 |
| 20260503184940 | 8 | 255 | 9.7 | 12.9 | 0.00 | 0.00 | 0.00 | 41 | 1011.5 |
| 20260503184437 | 8 | 283 | 8.0 | 11.3 | 0.00 | 0.00 | 0.00 | 41 | 1011.8 |
| 20260503183933 | 8 | 286 | 4.8 | 6.4 | 0.00 | 0.00 | 0.00 | 44 | 1011.6 |
| 20260503183430 | 8 | 297 | 8.0 | 11.3 | 0.00 | 0.00 | 0.00 | 44 | 1011.6 |
| 20260503182927 | 9 | 271 | 8.0 | 12.9 | 0.00 | 0.00 | 0.00 | 41 | 1011.7 |
| 20260503182426 | 8 | 272 | 9.7 | 9.7 | 0.00 | 0.00 | 0.00 | 44 | 1011.4 |
| 20260503181923 | 8 | 274 | 9.7 | 12.9 | 0.00 | 0.00 | 0.00 | 43 | 1011.7 |
| 20260503181420 | 7 | 269 | 11.3 | 12.9 | 0.00 | 0.00 | 0.00 | 44 | 1011.6 |
| 20260503180916 | 8 | 245 | 9.7 | 11.3 | 0.00 | 0.00 | 0.00 | 45 | 1011.5 |
| 20260503180414 | 7 | 290 | 8.0 | 11.3 | 0.00 | 0.00 | 0.00 | 45 | 1011.5 |
| 20260503175910 | 7 | 292 | 11.3 | 14.5 | 0.00 | 0.00 | 0.00 | 44 | 1011.6 |
| 20260503175408 | 7 | 289 | 8.0 | 11.3 | 0.00 | 0.00 | 0.00 | 45 | 1011.8 |
| 20260503174903 | 7 | 281 | 9.7 | 11.3 | 0.00 | 0.00 | 0.00 | 46 | 1011.7 |
| 20260503174402 | 7 | 247 | 12.9 | 17.7 | 0.00 | 0.00 | 0.00 | 48 | 1011.5 |
| 20260503173856 | 6 | 234 | 6.4 | 6.4 | 0.00 | 0.00 | 0.00 | 47 | 1011.7 |
| 20260503173353 | 7 | 275 | 14.5 | 20.9 | 0.00 | 0.00 | 0.00 | 46 | 1011.6 |
| 20260503172849 | 7 | 242 | 9.7 | 11.3 | 0.00 | 0.00 | 0.00 | 47 | 1011.2 |
| 20260503172347 | 7 | 247 | 16.1 | 17.7 | 0.00 | 0.00 | 0.00 | 48 | 1011.6 |
| 20260503171843 | 6 | 241 | 9.7 | 11.3 | 0.00 | 0.00 | 0.00 | 47 | 1011.5 |
| 20260503171340 | 7 | 305 | 3.2 | 6.4 | 0.00 | 0.00 | 0.00 | 52 | 1011.5 |
| 20260503170837 | 7 | 254 | 6.4 | 9.7 | 0.00 | 0.00 | 0.00 | 50 | 1011.7 |
| 20260503170334 | 6 | 277 | 9.7 | 12.9 | 0.00 | 0.00 | 0.00 | 48 | 1011.7 |
| 20260503150726 | 3 | 276 | 14.5 | 22.5 | 0.00 | 0.00 | 0.00 | 55 | 1012.3 |
| 20260503150222 | 3 | 20 | 3.2 | 4.8 | 0.00 | 0.00 | 0.00 | 58 | 1012.2 |
| 20260503140147 | 2 | 270 | 17.7 | 22.5 | 0.00 | 0.00 | 0.00 | 61 | 1011.6 |
| 20260503131116 | 1 | 293 | 9.7 | 9.7 | 0.00 | 0.00 | 0.00 | 68 | 1011.5 |
| 20260503130614 | 1 | 308 | 20.9 | 29.0 | 0.00 | 0.00 | 0.00 | 67 | 1011.1 |
| 20260503130112 | 1 | 270 | 8.0 | 9.7 | 0.00 | 0.00 | 0.00 | 71 | 1011.2 |
| 20260503110504 | -1 | 242 | 14.5 | 16.1 | 0.00 | 0.00 | 0.00 | 85 | 1010.1 |